Wind_Speed
16 16 16 16 15 15 15 16 16 17 18 19 19 20 20 20 21 21 22 23 24 25 27 28 29 31 32 34 34 35 35 35 35 35 35 36 36 37 37 37 38 38 38 39 40 41 41 41 40 38 36 35 34 34 32 30 29 29 28 29 30 31 32 34 36 34 32 31 30 30 31 31 31 31 31 31 33 36 36 34 35 38 38 37 37
14 14 14 14 14 15 15 16 16 17 18 19 20 20 21 21 22 23 23 25 26 27 28 30 31 32 33 34 34 34 34 34 34 34 34 34 35 36 37 37 38 38 39 39 39 40 41 40 39 37 35 34 34 33 32 30 29 29 29 29 30 31 32 34 35 35 34 32 30 30 31 32 31 31 31 31 33 36 38 37 36 38 38 38 38
12 13 13 13 14 15 15 16 17 18 18 19 20 21 22 22 23 24 25 26 26 27 29 30 31 32 32 33 33 33 33 33 33 33 34 34 34 35 35 36 37 38 38 39 39 40 40 39 38 36 34 33 33 32 32 30 29 29 29 30 31 31 32 33 34 34 33 32 31 30 31 31 29 29 29 30 32 35 37 37 36 37 37 37 38
11 12 12 12 13 14 15 16 17 18 19 19 20 21 22 22 23 24 24 25 26 27 28 29 30 30 31 31 31 31 31 32 32 32 33 34 34 34 35 35 36 37 37 38 39 40 40 40 38 36 33 32 32 32 31 30 29 29 29 30 31 32 32 33 32 32 32 32 32 30 30 29 28 29 28 28 31 34 37 37 37 37 37 36 37
11 11 11 12 12 14 15 17 18 18 19 19 20 20 21 22 22 23 24 24 25 26 27 27 27 28 28 28 29 29 29 30 30 31 31 32 33 33 34 35 35 36 37 38 39 40 40 40 40 38 35 32 31 31 30 29 28 28 29 30 31 32 32 32 31 31 30 30 30 31 31 29 28 29 28 27 27 30 34 36 37 38 37 35 35
11 11 11 12 13 14 16 18 18 18 18 19 19 19 19 20 20 21 21 22 23 23 24 25 26 26 27 28 28 29 29 29 30 31 31 32 32 33 33 34 34 35 36 37 38 39 40 40 40 39 37 33 31 30 30 29 29 29 29 29 30 32 33 32 31 30 28 28 30 31 31 30 29 29 29 28 27 26 28 30 33 35 35 35 35
10 11 11 12 14 16 17 18 18 18 18 18 18 18 18 18 18 19 19 20 21 22 23 24 25 26 26 27 28 28 28 29 29 29 30 31 32 32 33 33 34 34 35 36 37 38 39 39 40 40 39 35 32 31 30 29 29 30 31 32 31 32 33 33 31 30 29 30 32 32 32 31 30 30 31 31 30 29 29 30 31 32 33 35 36
10 11 12 14 15 16 16 16 16 16 16 16 16 16 16 16 17 18 19 20 21 22 22 23 23 23 24 24 25 26 27 27 27 28 28 29 30 31 32 32 33 33 34 35 37 37 38 38 39 39 39 37 34 31 30 29 28 28 31 34 34 34 33 33 32 30 29 30 31 32 35 34 32 32 33 34 35 34 33 33 33 33 33 35 36
10 12 13 14 14 14 14 14 14 14 14 14 14 14 15 16 17 18 19 19 19 19 19 20 20 21 22 23 24 25 26 27 28 28 28 29 30 31 32 33 33 33 34 34 35 37 37 38 38 38 38 38 36 34 32 32 32 31 33 35 36 35 34 33 33 32 30 31 32 32 34 35 34 34 34 36 36 36 35 35 35 35 35 36 37
10 12 12 12 12 12 12 12 12 11 11 11 12 14 15 15 16 16 16 16 16 16 17 19 20 21 23 24 25 26 27 28 29 30 30 31 31 31 32 33 34 34 35 35 35 36 37 37 38 38 38 38 37 36 34 35 36 37 38 37 36 36 36 34 33 32 32 33 33 32 32 34 35 35 36 36 36 36 37 37 37 37 36 37 39
10 10 10 10 10 10 10 9 9 9 10 11 12 13 13 13 13 13 14 15 16 17 18 20 21 22 24 25 26 27 28 29 30 31 32 32 33 33 33 34 34 35 36 36 36 36 37 37 38 38 38 38 38 37 36 36 37 39 40 38 36 36 38 37 33 32 33 34 34 34 34 35 36 37 37 37 37 38 38 37 38 38 37 37 40
8 8 8 8 8 8 7 7 7 8 10 10 10 10 11 11 12 13 14 15 17 18 20 21 22 24 25 27 28 29 30 32 32 33 34 34 35 35 35 35 36 36 37 38 38 38 38 38 38 39 39 39 38 38 37 37 37 38 39 39 36 36 38 38 35 32 32 34 35 35 36 36 36 38 37 37 36 36 37 37 38 39 38 38 39
7 7 7 6 6 5 5 6 7 8 8 8 8 9 10 10 12 13 15 17 19 20 21 23 24 26 27 29 30 31 32 33 34 35 36 37 37 37 37 37 38 38 38 39 39 40 40 40 40 40 40 40 39 38 38 37 37 37 38 38 37 37 37 38 36 34 32 33 35 36 36 35 35 37 36 34 35 35 36 37 38 39 40 40 39
6 6 5 4 3 3 5 6 6 6 6 7 8 9 10 11 13 15 16 18 19 21 23 24 26 27 28 30 31 32 33 35 36 37 37 38 39 39 39 39 38 39 39 39 40 41 41 41 41 41 41 41 40 38 38 37 36 36 37 39 39 38 37 37 37 36 34 34 35 37 36 35 34 34 34 32 33 35 36 37 38 38 39 40 39
5 4 3 2 3 4 5 5 5 6 6 7 8 9 11 13 14 16 17 19 20 22 23 25 26 28 29 31 32 34 35 36 37 37 38 38 39 39 39 39 39 38 38 39 39 40 41 41 41 41 41 41 41 39 37 36 36 36 36 38 40 40 38 38 38 38 36 35 36 37 37 35 34 32 32 32 33 34 34 35 35 35 37 39 39
3 2 1 2 3 3 4 4 5 6 6 7 9 10 12 14 16 17 19 20 21 22 23 25 26 28 30 31 33 34 36 37 38 38 39 39 39 39 39 39 39 38 38 38 39 39 40 40 40 40 40 40 40 38 37 35 35 36 35 36 38 40 39 38 39 39 38 36 36 37 37 35 34 33 32 31 32 32 33 35 34 34 36 37 38
2 1 0 1 2 3 3 4 4 5 7 8 10 12 14 15 17 18 19 20 22 23 24 26 28 29 31 32 34 35 36 37 38 39 39 40 40 39 39 39 39 38 38 37 37 38 38 39 38 38 38 38 38 38 36 34 33 34 35 34 35 38 40 40 39 39 38 36 36 37 36 33 33 34 33 32 32 33 34 36 36 35 36 37 38
2 1 1 2 3 3 3 3 4 6 8 10 12 13 14 16 17 19 20 21 22 24 26 28 29 30 31 33 34 36 37 38 39 39 40 40 40 40 40 40 39 38 37 36 36 36 36 36 36 36 36 36 37 37 35 34 32 32 33 33 33 34 38 41 41 40 39 37 35 37 37 34 32 33 34 33 32 34 36 36 36 36 36 37 38
3 2 2 3 3 2 2 4 6 8 10 12 13 14 15 17 18 19 20 22 23 25 26 28 29 30 32 33 34 36 37 38 38 39 40 40 40 40 40 40 39 38 38 37 36 36 35 35 34 33 33 34 35 35 34 33 31 31 32 32 31 31 34 40 43 41 38 36 35 36 37 36 34 33 34 34 34 35 37 36 35 36 36 37 38
4 4 4 3 2 2 4 6 8 10 11 12 14 15 16 17 18 19 20 22 24 25 26 27 29 30 32 33 34 35 36 37 38 38 39 39 39 39 39 39 39 39 39 38 38 37 36 35 33 32 31 31 31 31 32 31 29 28 29 30 30 29 30 36 42 42 39 36 36 36 36 35 34 33 34 35 36 36 36 36 36 37 36 37 38
5 5 4 2 2 4 6 8 9 11 12 13 14 15 16 17 18 19 20 22 23 25 26 27 29 30 32 33 34 35 36 36 37 37 36 37 37 38 39 39 40 39 39 39 38 38 37 35 34 33 32 30 28 28 28 28 26 24 24 25 26 27 27 30 36 41 40 36 35 36 36 33 32 32 32 33 36 37 37 37 38 38 37 36 36
6 4 3 2 3 6 7 9 10 11 12 13 14 14 15 17 18 19 20 22 23 24 26 27 28 30 31 32 33 34 35 35 35 35 35 35 37 38 38 39 39 39 38 38 37 37 36 35 34 34 34 32 29 28 27 26 25 23 22 21 22 23 25 27 30 36 39 37 34 34 35 34 32 31 31 31 34 36 36 37 38 39 38 37 35
5 3 2 3 5 7 8 9 10 11 12 12 13 14 16 17 19 19 20 21 22 24 25 26 28 29 30 31 33 33 34 34 34 34 34 35 36 37 37 37 38 38 38 38 37 35 34 35 36 36 37 37 35 32 30 27 25 23 22 20 18 19 21 24 26 30 34 36 34 32 34 35 33 31 31 30 31 33 34 35 36 37 37 37 35
4 3 3 4 6 7 8 9 10 11 11 12 13 15 17 18 19 19 20 21 22 24 25 26 28 29 30 31 33 34 34 34 34 33 33 34 35 36 36 36 36 37 37 36 35 34 34 35 36 37 38 38 38 35 33 31 28 25 22 21 18 16 17 20 22 24 27 30 29 29 32 35 33 31 31 29 29 30 32 33 34 35 35 36 36
3 3 3 4 5 6 7 8 9 10 11 13 15 16 17 18 19 19 20 21 22 24 25 27 28 29 31 32 33 34 35 34 33 33 32 33 34 35 35 36 36 36 35 35 34 33 33 34 34 34 34 35 34 33 31 30 28 25 22 22 20 17 14 15 18 20 22 24 24 26 30 34 34 33 32 30 28 28 29 31 31 32 33 34 35
2 2 3 4 5 6 7 8 9 10 12 14 15 17 18 18 19 20 20 21 22 23 25 27 28 29 31 32 34 35 35 35 34 33 32 33 34 35 36 36 36 35 33 33 32 32 32 32 31 30 30 30 29 29 27 25 23 21 19 19 20 18 14 11 13 15 18 19 21 23 24 29 33 34 32 30 28 26 26 28 30 31 32 32 33
2 2 3 4 4 6 7 8 9 11 13 14 15 16 17 18 19 20 21 22 23 24 25 26 28 29 31 32 34 35 36 36 35 34 34 35 37 37 37 36 36 35 33 32 31 31 31 30 29 28 26 25 25 25 24 22 20 18 16 14 14 14 13 11 9 11 13 14 16 18 17 20 27 31 30 29 28 25 25 26 28 29 31 32 32
3 3 3 3 4 5 6 8 9 11 13 14 15 16 17 18 19 20 21 22 23 25 26 27 29 30 31 32 34 35 36 37 38 38 38 39 39 38 37 36 36 36 34 32 31 30 29 29 28 27 26 24 23 23 23 22 20 18 17 15 13 12 11 10 8 8 9 9 11 13 13 14 19 23 24 23 23 23 23 25 26 27 29 31 31
3 3 3 3 3 4 6 8 9 11 13 14 15 16 17 18 19 20 21 22 24 25 26 28 29 31 32 33 34 36 37 39 39 39 38 38 38 38 38 37 37 36 35 33 31 29 28 28 29 29 28 27 25 25 26 26 24 22 20 18 16 14 12 10 9 8 7 7 7 8 9 10 12 15 16 16 16 16 16 18 21 25 28 29 30
4 3 2 2 2 4 6 8 10 11 13 14 15 16 17 18 19 20 21 23 24 25 26 27 28 30 31 33 34 36 38 38 37 36 36 36 37 37 38 38 37 36 35 33 31 29 28 29 30 31 31 31 30 30 30 30 29 27 25 23 20 18 16 15 15 15 13 10 8 7 6 6 7 8 10 11 12 12 12 11 13 17 23 26 27
3 2 1 1 2 4 6 8 10 11 12 13 15 16 17 18 19 20 21 23 24 25 26 27 28 28 29 31 33 34 35 35 35 35 35 35 35 36 37 37 37 36 35 34 32 30 28 29 30 31 32 33 33 33 34 33 33 32 31 28 26 23 21 19 19 18 16 14 12 10 8 7 6 6 5 5 6 6 8 9 9 11 14 16 18
3 2 0 1 3 4 6 7 9 11 12 13 14 15 16 18 19 20 21 22 24 25 26 26 27 28 29 30 31 32 33 33 34 34 34 34 34 35 36 36 36 35 35 34 33 32 30 30 30 31 33 34 34 34 34 34 34 34 33 32 31 29 26 24 22 18 16 15 14 13 11 9 7 5 4 2 1 0 2 5 8 10 11 11 10
3 2 0 1 3 4 6 7 8 10 11 13 14 15 16 17 18 19 21 22 23 24 25 26 27 28 29 30 30 31 32 32 33 33 33 33 33 33 35 36 36 35 33 33 33 33 32 31 31 31 32 33 33 33 33 33 33 34 34 34 33 32 30 28 25 21 19 18 16 15 14 12 10 8 6 5 3 3 3 2 3 5 7 7 6
3 2 1 1 3 4 5 6 8 9 11 12 13 14 16 17 18 19 20 21 22 23 24 25 26 27 28 29 29 30 31 31 32 33 33 33 32 32 33 33 33 33 33 33 33 33 33 32 32 31 31 32 32 32 32 32 32 33 33 33 33 32 31 29 28 27 25 23 21 19 17 16 14 12 10 8 6 5 3 3 4 3 3 3 2
3 2 2 1 3 4 5 6 7 8 10 11 13 14 16 17 18 19 20 21 22 23 24 25 26 26 27 28 28 29 29 30 31 32 33 33 32 31 30 30 31 32 33 33 33 33 33 32 31 31 31 31 31 31 31 32 32 32 32 32 32 32 31 30 29 28 26 25 24 23 22 20 19 18 16 13 10 7 5 3 3 3 4 4 3
3 2 2 2 2 4 5 5 6 7 9 10 12 13 15 16 18 19 20 20 21 22 23 24 25 26 26 27 28 28 29 29 30 32 33 33 32 31 30 30 31 32 33 33 33 32 32 31 30 30 30 30 30 30 30 30 31 31 31 31 31 31 31 31 29 27 25 23 21 21 22 22 22 21 20 17 14 11 8 5 3 2 3 4 5
4 3 3 2 2 3 5 5 5 7 8 10 11 12 13 15 17 18 19 20 21 22 23 24 24 25 26 26 26 27 28 28 29 30 31 31 31 31 31 31 31 31 32 32 33 32 32 31 30 29 28 28 29 29 28 28 28 29 29 29 30 30 30 30 28 27 25 23 20 19 19 20 20 21 21 20 18 16 13 10 7 4 2 3 4
5 4 3 3 2 3 4 5 5 7 8 9 10 11 12 14 15 17 18 19 20 21 21 22 23 24 25 25 25 26 26 26 27 27 28 29 30 30 31 31 31 31 30 31 32 32 32 31 31 29 27 26 26 26 26 27 27 27 26 27 27 27 27 27 27 26 25 23 22 20 19 18 18 19 19 19 18 17 15 14 11 9 5 3 3
6 5 5 4 3 3 4 5 6 7 8 9 10 11 12 13 14 16 17 18 19 19 20 21 22 23 24 24 24 24 25 25 26 26 27 29 30 31 30 30 30 30 29 29 30 31 31 31 30 30 28 26 25 24 24 25 25 25 25 25 25 25 25 25 26 26 25 24 23 22 20 20 19 18 18 18 18 18 16 15 13 12 10 7 5
7 6 5 5 4 3 4 5 6 7 8 9 10 10 11 12 13 15 16 16 17 18 19 20 21 21 22 23 23 24 24 25 25 26 27 28 29 30 30 30 30 30 29 28 29 29 30 30 30 30 29 27 26 24 24 24 24 24 24 24 24 24 24 24 24 24 24 23 22 21 20 20 19 18 17 18 18 19 18 16 15 14 12 11 10
8 7 6 5 5 4 4 5 5 7 8 9 10 10 11 12 13 14 15 16 16 17 18 19 19 20 21 22 23 23 23 24 25 26 27 28 29 30 30 30 30 30 29 28 28 28 29 29 30 29 29 28 27 25 24 23 23 23 24 24 24 24 24 24 23 23 22 21 21 20 20 19 18 17 17 17 18 19 18 18 17 15 15 15 14
8 7 7 6 6 5 5 5 6 7 8 9 10 11 11 12 12 13 14 15 16 16 17 18 18 19 20 21 22 22 23 23 24 25 26 27 28 29 29 30 30 30 29 29 28 27 27 28 29 29 29 28 27 27 25 24 23 23 24 24 24 24 24 24 23 23 22 20 20 19 19 18 18 18 17 17 16 17 17 17 17 16 16 16 16
9 8 8 8 7 7 6 6 6 7 8 9 10 11 11 12 12 13 14 14 15 16 16 17 18 18 19 21 21 22 22 22 23 23 24 25 26 27 28 29 29 29 29 29 28 27 26 26 27 28 29 28 28 28 27 26 26 25 24 23 23 24 23 23 23 22 21 20 19 19 18 17 17 17 16 16 16 16 16 16 16 16 16 16 16
10 9 9 9 8 8 7 7 7 8 8 9 9 10 11 11 12 12 13 14 14 15 16 17 17 18 19 20 20 21 21 21 22 22 23 24 25 26 27 28 29 29 29 29 29 27 26 25 25 26 27 27 27 27 27 27 27 26 24 23 23 23 22 22 22 22 21 21 20 19 18 16 16 16 15 15 15 15 15 15 15 16 16 15 15
12 11 11 10 10 9 8 8 8 9 9 9 9 9 10 11 11 12 13 14 14 15 15 16 17 17 18 18 19 20 20 20 21 21 22 22 23 24 25 26 27 28 28 29 28 27 26 25 24 23 24 25 25 26 26 26 26 26 25 24 23 22 22 22 22 22 22 21 20 19 18 17 16 15 14 14 14 14 14 14 14 14 14 14 13
13 13 12 12 11 10 10 9 9 10 10 10 10 9 10 10 11 11 12 13 14 15 15 16 17 17 18 18 18 18 19 19 20 20 21 21 22 23 24 25 26 27 28 28 28 27 26 25 24 23 22 22 23 24 24 24 24 24 24 24 23 22 22 21 21 21 21 21 20 18 18 17 16 15 13 13 12 12 12 12 12 11 12 12 12
15 15 15 14 13 12 11 10 10 11 12 12 11 10 10 10 11 11 12 13 13 14 15 15 16 17 17 17 18 18 18 18 18 19 20 20 21 21 22 23 24 25 26 27 27 27 27 26 25 24 23 22 21 21 22 23 23 23 22 22 23 22 21 20 20 20 20 20 19 18 17 16 15 15 14 13 12 11 11 10 10 10 9 9 10
16 16 16 15 15 13 12 11 12 12 13 13 12 12 11 11 11 11 12 12 13 13 14 15 15 16 16 17 17 18 18 17 17 18 18 19 19 20 21 21 22 23 24 25 25 26 26 26 26 24 23 22 21 20 20 20 21 21 21 21 21 21 21 20 20 19 19 19 18 18 18 16 15 14 13 13 12 11 10 10 9 9 8 8 8
18 18 18 17 16 15 14 13 13 13 14 14 13 13 13 13 12 12 12 12 12 12 13 14 14 15 16 16 16 17 17 17 17 17 17 17 18 19 19 20 20 21 22 22 23 24 25 26 26 25 24 23 22 20 19 19 19 19 20 20 20 19 19 19 19 19 18 18 17 17 16 16 15 14 13 12 11 11 10 9 9 8 7 7 6
20 20 19 18 18 17 16 16 14 14 14 14 14 14 14 14 14 14 13 12 12 12 12 13 14 14 15 15 16 16 17 17 17 17 17 17 17 18 18 18 19 19 20 21 21 22 23 24 25 25 25 24 23 21 20 19 18 17 18 18 18 18 18 18 18 18 18 18 17 16 15 15 14 14 13 12 11 11 10 9 8 7 7 7 6
21 21 21 20 19 19 19 18 16 15 15 15 15 15 15 15 15 15 15 14 13 13 13 13 13 14 15 15 15 16 16 16 16 17 17 16 17 17 17 17 17 18 18 19 20 20 21 21 23 24 24 24 24 23 21 20 18 17 17 17 17 17 17 17 17 17 17 17 16 16 15 14 13 13 13 12 11 11 10 9 7 6 6 6 5
Wind_Direction
240 243 246 250 254 259 262 266 271 276 278 280 281 281 282 283 286 288 290 291 293 295 296 298 298 299 299 300 300 300 300 299 299 298 297 296 295 294 293 293 292 292 292 292 293 294 295 297 299 300 301 300 299 300 301 300 296 293 292 290 285 280 274 269 268 268 266 262 256 252 251 251 249 245 241 236 232 232 233 231 230 228 224 220 217
239 243 248 253 258 262 266 271 276 279 281 282 282 282 283 286 288 290 292 293 295 297 298 300 300 301 301 301 302 302 301 301 300 299 298 297 295 295 294 294 293 293 293 293 293 294 295 297 298 299 299 297 296 296 296 295 293 291 291 290 287 283 277 271 268 266 264 261 257 253 252 254 254 247 240 237 236 234 233 231 230 229 224 220 217
241 245 249 255 261 266 272 277 280 281 282 282 283 284 286 288 291 292 294 296 298 300 301 302 302 302 303 303 303 303 302 302 301 301 300 298 297 296 295 294 294 294 294 294 294 295 295 296 297 298 297 294 293 293 293 291 289 288 289 290 288 285 280 276 271 267 266 262 257 255 255 255 255 249 241 240 238 234 233 231 229 227 224 220 218
242 246 252 259 265 272 278 280 281 281 281 283 284 287 290 292 295 296 298 300 302 303 304 304 304 304 304 304 304 304 303 303 302 302 301 300 299 297 296 295 295 295 294 294 294 295 295 297 297 297 295 292 290 289 290 290 289 286 287 288 288 286 283 279 273 267 264 260 255 254 254 253 252 247 242 240 236 233 233 231 228 225 221 219 218
248 253 258 265 271 277 280 280 281 282 284 287 289 292 295 297 299 301 302 304 305 306 306 306 307 307 306 306 306 305 305 304 303 302 302 301 300 300 299 298 297 296 296 295 295 295 296 297 297 297 296 292 288 287 287 288 287 286 285 286 286 285 283 281 278 271 262 256 254 252 251 250 247 242 237 235 234 233 234 233 228 223 218 216 216
256 260 266 273 277 279 280 281 283 286 289 292 295 297 299 300 302 304 306 307 309 309 310 310 310 309 309 308 308 308 307 307 306 305 303 303 302 302 301 300 300 299 298 296 296 295 295 296 297 297 296 293 289 286 284 283 283 283 284 284 283 283 283 281 280 275 265 256 254 251 249 248 243 237 232 232 233 232 233 233 227 220 217 215 214
265 271 277 280 281 281 282 284 287 290 294 297 300 302 304 306 308 310 312 314 315 315 315 314 314 314 314 315 315 316 316 315 314 313 311 309 307 305 303 302 300 299 298 297 296 295 295 295 295 295 295 294 289 285 283 281 281 281 281 281 281 281 282 283 280 276 270 263 255 249 249 248 240 234 232 232 233 233 232 233 230 225 222 218 215
275 280 282 282 283 284 286 289 293 297 301 304 306 309 312 315 317 319 320 320 320 321 321 321 323 324 326 328 328 328 327 326 325 323 321 319 316 313 310 307 305 302 300 298 297 296 295 295 294 293 293 292 290 284 279 276 277 278 277 277 279 280 281 283 283 280 276 272 262 251 249 249 241 234 234 233 233 233 232 231 231 230 226 222 219
280 282 283 283 286 289 293 298 302 306 308 310 314 319 322 324 326 326 327 327 329 331 333 335 338 340 341 340 339 338 336 334 332 330 329 327 324 321 318 315 312 308 304 301 298 297 296 295 294 292 290 290 288 284 277 271 271 274 274 274 276 278 280 281 281 280 279 277 273 262 253 251 245 237 235 235 235 235 235 233 232 232 228 225 224
280 281 283 286 291 297 302 307 309 312 315 320 325 328 330 332 334 336 339 342 345 347 349 350 350 349 348 347 345 343 342 340 338 336 334 332 329 325 322 319 316 312 309 305 301 298 296 295 294 292 289 286 284 282 278 272 269 271 272 273 275 276 278 279 278 278 277 275 275 272 261 252 245 239 236 236 237 237 236 235 235 233 230 227 226
278 281 286 292 298 304 307 310 314 320 327 332 335 337 341 346 350 354 356 357 357 358 358 356 354 352 350 349 348 347 345 344 342 340 337 334 332 329 325 322 319 315 312 308 304 300 297 295 294 292 290 285 281 278 275 271 269 267 266 268 271 275 276 276 275 274 273 272 271 271 266 253 243 239 237 235 237 238 237 235 235 234 232 230 229
279 285 292 298 303 306 309 316 327 336 341 344 347 354 2 5 6 5 3 1 1 0 359 356 354 353 351 351 350 349 348 347 344 342 340 338 336 333 330 327 323 319 316 312 308 304 300 296 294 293 292 288 283 278 274 270 268 266 265 263 264 268 272 275 275 272 271 270 269 268 267 257 243 237 237 234 234 237 237 235 234 234 233 231 230
283 289 295 300 303 308 323 337 346 351 356 2 10 16 16 12 9 6 3 1 1 359 357 355 354 353 353 352 351 350 350 348 346 344 342 340 338 336 334 331 328 325 321 317 314 310 305 301 296 293 293 291 288 282 276 271 267 265 264 262 261 262 265 270 273 272 270 269 268 267 266 262 248 239 237 235 233 234 235 235 235 235 234 232 231
284 289 294 301 312 334 350 356 3 13 21 25 25 19 11 7 5 4 2 0 359 357 356 356 355 354 354 353 352 352 351 350 348 346 344 342 340 338 336 334 332 329 326 323 319 315 311 307 303 298 295 293 292 287 280 274 269 265 261 260 259 259 262 264 267 268 267 266 267 267 265 264 256 243 237 235 233 232 233 235 236 237 236 234 232
280 289 298 317 350 1 8 20 34 39 35 27 19 10 5 5 3 1 359 358 358 357 356 356 355 355 355 354 354 353 352 351 349 347 345 344 342 340 339 337 335 334 331 328 324 321 317 313 309 305 300 297 295 293 287 279 273 268 263 259 256 256 259 262 262 263 263 261 263 266 264 262 257 246 238 237 235 232 232 235 237 238 237 233 231
275 290 313 353 10 19 36 53 53 42 30 20 10 4 4 4 2 359 358 358 357 357 356 356 356 356 356 356 355 354 353 352 350 348 346 345 343 342 341 340 339 338 336 333 329 325 322 319 315 311 307 302 299 297 293 286 278 273 268 263 256 252 254 258 259 260 262 260 258 262 264 262 256 246 239 238 236 233 232 233 233 235 234 230 229
259 252 22 27 42 65 73 64 47 29 19 13 7 3 3 3 0 358 358 357 356 356 356 357 358 358 357 357 356 355 354 352 350 349 348 346 345 345 345 344 343 342 340 336 332 329 325 323 320 317 313 308 304 301 298 292 284 278 272 267 259 250 248 252 256 258 260 260 258 258 261 261 256 248 240 237 236 232 231 231 231 231 231 229 229
183 167 131 102 99 98 78 46 27 17 12 9 5 2 1 0 358 356 356 356 356 357 358 359 359 358 358 358 357 356 354 353 351 350 349 348 347 347 347 346 345 343 342 339 335 332 329 326 323 320 316 312 309 306 304 299 292 284 277 271 265 254 246 247 252 256 258 257 258 258 257 255 255 250 241 236 236 234 232 232 232 232 232 232 233
165 155 137 128 116 88 43 22 15 11 8 5 2 359 359 358 357 356 356 356 358 360 0 360 359 358 359 358 358 356 355 353 352 351 350 349 349 348 347 346 345 344 343 342 339 336 332 329 325 321 318 316 313 310 309 305 300 294 286 278 271 262 251 246 249 256 258 255 255 258 257 252 250 250 243 236 235 236 234 232 232 232 233 234 235
159 152 142 133 106 42 17 13 10 6 2 1 359 358 357 357 356 356 357 359 0 1 0 359 359 359 359 359 358 357 356 354 353 352 351 350 349 349 348 347 347 347 346 345 342 339 336 333 329 326 323 320 317 313 311 309 304 299 293 287 279 270 259 250 249 254 259 258 254 256 258 253 248 248 246 239 235 236 236 233 232 232 232 234 235
160 149 140 123 55 21 11 8 5 1 358 358 358 357 355 356 356 358 360 1 2 1 0 360 0 0 0 360 359 358 357 356 354 353 351 350 350 351 351 350 350 350 349 347 344 341 339 337 335 332 330 328 324 320 318 316 310 304 300 295 288 279 269 257 250 251 258 262 258 255 257 257 250 246 246 242 236 236 237 235 234 233 232 234 236
153 140 122 61 24 13 6 2 360 359 356 355 356 355 355 356 358 0 2 2 2 2 1 1 1 2 1 0 360 360 359 358 356 353 352 351 352 354 354 353 352 352 351 349 347 345 343 342 341 340 340 340 337 333 329 323 316 311 308 303 296 287 277 266 255 250 253 259 261 257 255 257 254 248 246 243 237 235 236 236 236 236 234 234 237
144 124 81 31 15 8 2 357 356 357 355 353 355 356 357 359 360 1 2 2 2 1 1 2 2 2 2 1 1 1 1 0 358 355 353 353 355 356 357 356 355 354 353 352 351 349 348 348 348 348 346 345 344 342 339 334 326 320 315 311 306 296 285 275 265 257 254 257 262 261 257 256 255 251 248 246 241 237 236 237 238 238 236 235 236
132 99 55 24 13 6 360 355 355 356 355 355 358 0 1 360 360 0 1 1 1 1 1 2 2 1 2 2 2 3 4 3 1 358 355 355 357 359 360 359 358 357 356 355 353 352 352 353 351 349 346 344 343 344 343 341 337 332 325 321 319 311 297 284 274 267 263 261 262 262 258 254 252 250 249 250 247 241 238 237 239 239 236 233 233
117 81 44 24 15 8 1 355 355 358 359 360 2 3 2 360 358 359 0 1 2 1 1 1 1 1 1 2 3 4 5 5 3 0 358 358 360 2 2 2 1 360 358 357 355 354 355 354 351 349 347 344 343 343 344 342 340 336 330 324 322 321 311 295 283 276 273 269 266 262 255 250 250 250 248 248 250 248 242 237 237 238 237 233 231
112 73 44 29 20 11 4 359 360 4 6 6 5 4 1 359 358 358 360 1 1 1 1 2 1 2 2 2 3 4 4 5 4 3 2 2 4 5 5 4 3 3 1 358 356 355 355 354 351 350 351 350 349 349 349 346 338 333 329 324 323 326 325 311 294 285 279 274 270 264 252 245 248 253 252 248 248 251 248 242 237 235 236 235 234
120 82 55 38 24 13 8 6 6 10 12 9 5 3 0 359 358 358 359 1 0 360 0 0 1 2 2 3 3 4 3 4 4 4 5 6 7 7 7 6 4 3 2 0 357 355 354 353 352 352 353 356 358 358 356 353 347 341 341 339 336 338 342 339 323 305 295 285 275 268 256 243 244 252 257 253 247 245 244 243 239 235 234 233 233
130 101 74 49 28 15 12 12 13 16 14 9 5 3 0 359 359 359 359 0 0 360 359 359 360 1 2 3 3 3 3 3 4 6 7 7 7 7 7 6 6 4 2 2 0 356 352 351 352 353 353 356 1 4 6 9 9 5 4 4 2 1 1 359 346 327 317 308 291 280 273 260 250 254 260 259 253 246 240 236 234 233 233 233 232
137 111 86 54 25 17 18 17 17 18 15 9 5 3 1 0 359 359 359 360 360 1 0 0 0 1 1 2 3 4 4 5 6 7 7 6 6 6 6 7 8 6 3 3 2 357 352 352 355 357 357 0 6 13 17 20 22 22 22 21 19 18 19 18 15 10 2 346 326 307 296 286 273 265 262 257 254 252 246 238 233 231 228 227 227
138 112 87 47 16 18 23 21 19 18 13 8 5 3 2 1 360 359 359 360 359 0 1 1 2 3 3 3 3 4 5 5 6 6 6 6 6 6 7 8 8 7 5 4 3 0 357 357 360 1 4 7 12 18 22 23 25 27 29 30 30 29 28 31 34 35 33 23 11 5 353 333 311 290 273 264 262 265 265 262 254 242 231 222 219
143 127 98 23 6 16 24 22 19 16 11 7 4 2 2 2 360 359 359 359 359 360 360 360 1 4 5 5 5 5 5 4 5 5 6 6 6 6 8 9 9 8 7 5 5 4 3 3 4 7 10 14 18 21 23 24 26 28 29 30 32 33 33 32 33 34 35 36 35 33 28 17 356 331 307 290 283 274 263 257 252 244 236 227 222
157 155 143 357 358 10 20 22 18 13 8 5 2 0 1 1 359 359 360 359 359 359 359 359 1 3 4 5 6 5 5 4 5 6 6 6 6 5 7 9 10 9 8 7 6 8 9 9 9 11 15 19 22 23 24 24 25 28 29 30 32 33 33 31 28 27 29 31 32 33 37 38 31 20 19 22 30 90 224 229 224 224 229 233 234
170 165 182 332 345 2 12 17 16 10 5 1 359 358 359 359 359 359 359 359 359 358 358 359 1 2 3 4 5 5 5 5 5 6 6 6 6 5 7 9 9 9 9 9 9 10 11 13 14 15 17 21 23 25 25 25 26 27 29 30 31 31 32 32 32 33 34 31 27 26 28 32 34 34 37 41 48 65 83 118 165 195 212 217 220
178 171 202 301 334 353 5 11 11 6 2 358 356 356 357 357 358 360 359 358 358 357 357 358 0 1 1 2 4 6 6 5 6 6 7 7 6 6 6 7 7 9 11 12 13 13 13 14 16 18 19 21 23 24 25 26 26 27 28 30 31 31 32 32 34 36 38 37 36 35 33 32 32 33 35 37 39 43 55 79 103 131 153 162 175
193 200 222 280 323 338 352 4 5 2 360 357 355 355 356 356 356 358 358 357 356 356 357 358 359 359 360 0 3 5 6 6 6 6 6 6 6 6 5 4 5 9 13 14 15 16 15 15 16 18 20 22 23 24 25 25 26 27 27 29 30 30 31 33 35 36 37 38 39 38 37 37 38 38 37 36 36 38 45 60 80 112 137 143 152
202 216 232 260 306 323 338 354 358 357 357 357 355 354 354 353 353 354 356 357 356 356 357 357 357 358 358 359 1 4 6 6 6 6 5 5 5 4 5 4 6 9 13 15 17 17 17 17 17 17 19 21 22 24 25 25 25 25 26 27 28 28 29 31 33 35 38 40 41 37 35 35 37 39 38 37 37 40 45 55 71 102 145 157 167
204 212 229 247 282 310 326 339 348 350 351 352 353 352 351 350 349 350 353 355 356 356 356 356 356 356 357 358 0 3 5 6 6 5 4 4 3 3 4 5 7 8 11 14 17 18 18 19 19 19 19 20 21 22 24 25 25 25 25 25 26 27 28 28 30 32 36 39 41 40 35 32 32 34 35 36 38 40 41 46 55 68 113 149 160
204 207 221 238 257 293 316 328 337 341 342 345 348 349 349 348 347 347 350 352 354 354 354 354 355 355 355 356 359 2 4 5 5 4 3 3 4 4 4 4 6 7 9 12 15 17 18 19 19 20 21 21 21 20 21 22 24 25 25 25 24 25 27 28 28 29 32 35 38 40 39 37 34 32 32 34 38 41 41 41 45 51 62 84 121
209 209 215 229 245 276 307 321 329 331 333 338 343 345 347 347 346 346 348 350 350 351 353 354 355 354 353 355 358 1 2 3 4 3 2 4 5 5 4 4 5 6 8 10 12 15 18 19 19 20 20 21 21 20 19 20 20 21 23 24 23 22 25 27 29 28 29 31 35 37 39 40 39 38 36 36 40 44 45 45 47 50 56 64 74
214 215 217 228 247 270 296 314 322 321 324 330 336 340 343 346 344 344 345 346 347 349 351 354 355 354 352 353 357 360 1 2 2 2 2 4 5 6 6 5 5 6 8 9 10 12 16 18 19 19 20 20 20 19 18 18 18 17 18 20 22 21 21 24 28 29 28 28 31 34 37 39 41 41 41 43 46 48 48 51 56 59 63 68 72
218 222 227 237 251 266 284 301 309 310 314 322 328 332 337 341 342 341 342 343 345 347 350 353 354 353 352 353 356 359 0 1 1 1 2 3 5 6 6 6 6 6 7 8 8 10 12 16 18 19 20 20 20 19 18 18 17 16 15 16 19 20 20 21 25 29 29 28 29 32 35 38 40 41 43 48 53 55 55 56 60 66 71 76 77
222 226 233 243 253 264 278 289 297 300 306 313 320 326 331 336 338 337 337 339 342 346 349 350 351 352 353 353 355 357 359 360 0 0 2 3 4 5 5 6 6 6 6 6 8 8 9 11 14 17 19 20 20 20 21 20 19 17 15 14 15 18 19 19 22 26 28 29 30 31 33 35 38 41 44 48 53 59 63 64 66 69 74 80 83
226 229 236 245 253 262 272 281 287 292 298 306 315 321 325 330 332 331 332 334 339 343 347 348 349 351 352 353 354 356 357 358 359 360 1 2 3 4 5 5 6 7 6 5 6 8 8 8 10 12 15 17 18 19 20 21 21 19 16 13 13 15 17 18 20 22 25 28 32 34 34 34 35 37 42 46 51 56 62 67 70 73 75 79 82
230 232 237 244 251 259 266 274 282 287 293 301 309 314 318 323 326 326 326 329 333 339 343 344 346 349 350 350 352 354 355 356 357 358 360 1 2 3 4 5 5 6 6 6 6 7 7 7 8 9 11 14 16 17 18 20 21 19 17 15 15 15 16 17 18 20 23 25 28 30 34 37 37 36 38 42 47 52 56 60 67 72 74 76 78
233 236 239 243 248 253 259 267 276 282 286 292 299 305 310 315 319 320 320 323 328 333 337 339 342 344 345 347 349 351 352 353 355 356 359 0 1 2 3 4 4 5 6 6 7 7 6 6 7 7 7 10 13 15 17 19 20 19 18 17 17 17 17 18 18 19 21 23 24 25 27 32 36 39 40 41 44 47 50 53 57 63 67 70 72
237 238 240 242 245 249 254 262 271 277 281 284 290 295 300 306 311 314 316 318 321 326 330 333 335 337 339 342 346 348 350 351 352 353 356 358 359 0 1 2 3 3 4 5 7 8 7 7 7 6 6 7 9 12 15 17 18 18 18 18 18 18 19 19 19 18 20 21 22 23 24 25 28 33 38 42 44 47 49 51 52 55 59 62 63
241 241 241 243 245 247 250 257 265 272 276 279 283 287 292 298 303 307 308 311 314 318 322 325 327 329 332 335 340 344 348 349 350 351 353 355 357 359 360 360 1 1 1 3 6 7 7 7 7 6 6 6 6 8 11 14 15 16 17 18 18 18 19 19 19 19 20 19 19 20 22 23 24 26 29 34 39 42 45 48 50 51 52 55 58
245 246 246 247 248 248 250 253 260 267 272 276 280 283 286 289 294 296 299 301 304 308 312 316 318 321 324 328 332 337 342 346 349 350 350 351 353 356 357 358 359 359 359 1 4 6 7 7 7 7 6 6 5 6 7 10 12 13 14 15 17 18 18 18 18 19 20 20 19 18 18 20 22 23 24 25 29 34 38 41 44 46 47 48 51
248 249 249 251 252 252 251 252 255 261 267 273 277 280 281 283 285 287 288 290 293 298 303 306 310 314 317 321 325 329 334 340 344 347 347 347 349 352 354 355 356 357 357 358 1 4 6 7 7 7 6 6 5 4 4 5 8 10 10 11 13 14 16 16 16 17 19 21 20 18 17 16 17 20 22 22 22 25 31 34 35 36 38 39 39
253 253 253 254 255 255 253 253 255 258 263 268 273 276 278 279 281 282 283 284 286 290 295 299 303 307 310 314 318 322 326 332 337 342 344 343 344 346 349 351 353 354 355 355 357 1 5 6 6 6 6 5 4 4 2 1 2 3 5 7 8 9 11 12 14 15 16 18 18 19 18 15 14 14 16 17 17 17 20 26 30 29 27 26 26
256 257 256 256 256 256 256 256 257 259 261 265 269 273 276 279 281 282 283 285 287 290 293 296 298 300 303 306 310 314 319 325 330 335 338 339 338 339 343 346 348 351 352 353 354 358 2 4 5 5 5 5 4 3 2 1 359 358 358 359 1 3 4 6 8 10 12 14 15 16 17 16 15 12 10 10 11 10 8 10 14 18 19 18 16
Height
3138 3139 3139 3140 3141 3141 3141 3141 3141 3140 3140 3140 3139 3139 3138 3137 3136 3135 3134 3133 3132 3130 3129 3128 3126 3125 3123 3121 3120 3118 3116 3114 3113 3111 3109 3107 3105 3103 3101 3100 3098 3096 3095 3093 3091 3089 3087 3086 3084 3083 3081 3079 3078 3077 3075 3074 3072 3071 3069 3068 3067 3066 3066 3064 3062 3063 3064 3065 3065 3067 3067 3068 3069 3070 3071 3073 3074 3076 3077 3080 3082 3084 3086 3088 3091
3137 3138 3138 3139 3139 3139 3139 3139 3139 3138 3138 3138 3137 3136 3136 3135 3134 3133 3132 3131 3129 3128 3126 3125 3123 3121 3120 3118 3116 3114 3112 3110 3109 3107 3105 3103 3101 3099 3097 3095 3094 3092 3090 3088 3087 3084 3082 3081 3080 3078 3077 3075 3074 3073 3071 3070 3068 3067 3066 3065 3064 3063 3062 3061 3060 3059 3060 3061 3061 3062 3063 3063 3064 3066 3067 3068 3070 3072 3073 3075 3077 3079 3081 3084 3086
3136 3137 3137 3137 3137 3137 3137 3137 3137 3136 3136 3136 3135 3134 3134 3133 3132 3131 3129 3128 3126 3125 3123 3121 3120 3118 3116 3115 3113 3111 3109 3107 3105 3103 3101 3099 3097 3095 3093 3091 3089 3087 3085 3083 3082 3080 3078 3076 3075 3074 3072 3071 3070 3068 3067 3066 3064 3063 3062 3061 3060 3059 3058 3057 3056 3055 3056 3056 3057 3058 3059 3059 3060 3062 3063 3064 3066 3067 3068 3070 3073 3075 3077 3079 3082
3135 3135 3135 3135 3135 3135 3135 3135 3135 3135 3135 3134 3133 3133 3132 3130 3129 3128 3127 3125 3124 3122 3120 3119 3117 3115 3113 3112 3110 3108 3106 3104 3102 3100 3098 3096 3094 3092 3090 3087 3085 3083 3081 3079 3077 3075 3073 3071 3070 3069 3068 3067 3065 3064 3063 3062 3061 3059 3058 3058 3056 3055 3054 3052 3051 3052 3052 3052 3053 3054 3055 3056 3056 3058 3059 3060 3061 3062 3064 3066 3068 3070 3073 3076 3078
3133 3133 3133 3134 3134 3134 3134 3134 3134 3133 3133 3132 3132 3131 3129 3128 3127 3126 3124 3123 3121 3119 3118 3116 3114 3113 3111 3109 3108 3106 3104 3102 3099 3097 3095 3092 3090 3088 3086 3084 3081 3079 3077 3075 3072 3070 3068 3066 3065 3063 3062 3062 3061 3060 3059 3058 3057 3056 3054 3053 3052 3051 3050 3048 3047 3047 3048 3048 3049 3050 3050 3052 3053 3054 3055 3056 3057 3058 3060 3062 3064 3066 3068 3071 3075
3131 3132 3132 3132 3132 3132 3132 3132 3132 3131 3131 3130 3129 3128 3127 3126 3125 3124 3122 3120 3119 3117 3116 3114 3112 3110 3109 3107 3105 3103 3101 3099 3096 3094 3092 3089 3087 3084 3082 3080 3078 3075 3073 3071 3068 3066 3064 3062 3060 3058 3057 3056 3056 3055 3054 3054 3053 3052 3050 3049 3048 3047 3046 3045 3044 3043 3043 3044 3045 3045 3046 3047 3049 3050 3052 3053 3054 3055 3057 3059 3060 3062 3065 3067 3070
3130 3130 3131 3131 3131 3131 3131 3130 3130 3129 3128 3128 3127 3126 3125 3124 3123 3121 3120 3118 3116 3115 3113 3112 3110 3108 3106 3104 3102 3099 3097 3095 3093 3091 3088 3086 3083 3081 3079 3076 3074 3072 3069 3067 3064 3062 3060 3058 3056 3054 3052 3051 3051 3050 3049 3049 3049 3048 3046 3045 3044 3043 3042 3041 3040 3039 3039 3039 3040 3041 3042 3043 3045 3047 3048 3050 3051 3052 3054 3056 3057 3059 3062 3064 3066
3129 3129 3129 3129 3129 3129 3128 3128 3127 3127 3126 3126 3125 3124 3123 3122 3120 3119 3117 3116 3115 3113 3111 3109 3107 3105 3103 3101 3099 3097 3094 3092 3090 3088 3085 3082 3080 3077 3075 3072 3070 3068 3065 3063 3060 3058 3056 3054 3052 3049 3048 3046 3046 3045 3044 3044 3044 3043 3042 3041 3040 3039 3038 3037 3037 3036 3035 3035 3035 3036 3037 3038 3040 3042 3044 3045 3046 3048 3050 3052 3054 3057 3059 3061 3064
3127 3127 3127 3127 3127 3127 3126 3126 3126 3125 3125 3124 3123 3122 3121 3119 3118 3117 3116 3114 3113 3111 3109 3107 3105 3103 3101 3099 3097 3095 3092 3089 3087 3084 3082 3079 3077 3074 3071 3068 3065 3063 3061 3059 3056 3054 3052 3050 3047 3045 3043 3042 3041 3040 3040 3039 3038 3037 3037 3037 3036 3035 3034 3033 3033 3032 3032 3031 3031 3032 3033 3033 3035 3037 3039 3040 3042 3044 3046 3048 3050 3053 3056 3058 3059
3126 3126 3126 3125 3125 3125 3125 3124 3124 3124 3123 3122 3121 3120 3119 3118 3116 3115 3114 3113 3112 3110 3108 3106 3104 3102 3100 3098 3095 3093 3090 3087 3084 3081 3079 3076 3073 3071 3068 3064 3061 3059 3056 3054 3052 3049 3047 3045 3043 3041 3039 3037 3036 3036 3035 3034 3033 3032 3032 3032 3031 3030 3030 3029 3029 3029 3028 3028 3027 3028 3028 3028 3030 3032 3034 3036 3039 3040 3042 3044 3046 3048 3051 3052 3053
3124 3124 3124 3124 3124 3124 3124 3124 3123 3123 3122 3121 3120 3119 3118 3116 3115 3114 3113 3112 3110 3109 3107 3105 3103 3101 3099 3096 3094 3091 3088 3085 3082 3079 3076 3073 3070 3067 3064 3061 3058 3054 3051 3049 3046 3044 3042 3040 3038 3036 3034 3032 3031 3031 3030 3030 3029 3028 3028 3028 3027 3026 3025 3024 3025 3025 3024 3023 3023 3023 3023 3023 3025 3027 3029 3032 3034 3035 3037 3039 3041 3043 3046 3048 3049
3123 3123 3123 3123 3123 3123 3123 3123 3122 3121 3120 3119 3119 3118 3117 3116 3115 3114 3113 3111 3109 3107 3105 3104 3101 3099 3097 3094 3092 3089 3086 3083 3080 3077 3073 3070 3067 3063 3060 3057 3053 3050 3047 3044 3041 3038 3036 3035 3033 3030 3028 3026 3025 3025 3024 3024 3024 3023 3023 3023 3023 3023 3021 3020 3020 3020 3020 3019 3019 3019 3018 3018 3020 3022 3024 3026 3028 3030 3032 3034 3035 3038 3040 3042 3044
3122 3122 3122 3122 3122 3122 3122 3121 3121 3120 3119 3119 3118 3118 3117 3116 3115 3113 3112 3110 3108 3106 3104 3102 3100 3097 3095 3092 3090 3087 3084 3081 3077 3074 3070 3067 3063 3060 3056 3053 3049 3046 3042 3039 3036 3033 3030 3028 3026 3025 3022 3020 3018 3017 3017 3018 3018 3018 3017 3017 3018 3018 3017 3016 3015 3015 3015 3014 3014 3014 3014 3014 3015 3016 3018 3021 3023 3025 3027 3028 3030 3033 3035 3037 3040
3121 3121 3122 3122 3121 3121 3121 3120 3120 3119 3119 3119 3118 3117 3117 3116 3114 3112 3110 3109 3107 3105 3103 3100 3098 3096 3093 3090 3088 3085 3082 3078 3075 3071 3068 3064 3060 3057 3053 3050 3046 3042 3039 3035 3032 3028 3025 3022 3020 3018 3016 3014 3012 3011 3010 3010 3011 3011 3011 3012 3012 3012 3013 3012 3011 3010 3010 3010 3009 3009 3009 3010 3010 3011 3014 3016 3017 3019 3021 3023 3026 3028 3030 3033 3037
3121 3121 3121 3120 3120 3120 3120 3120 3119 3119 3119 3119 3118 3117 3116 3114 3113 3111 3109 3107 3106 3104 3101 3099 3097 3094 3092 3089 3085 3082 3079 3076 3072 3069 3065 3062 3058 3054 3051 3047 3044 3040 3036 3032 3028 3025 3021 3018 3015 3012 3010 3008 3006 3004 3003 3003 3003 3003 3004 3005 3005 3006 3007 3006 3006 3005 3005 3005 3005 3004 3004 3005 3005 3006 3008 3010 3011 3014 3017 3019 3021 3023 3026 3029 3031
3120 3120 3120 3119 3119 3119 3119 3120 3120 3120 3119 3119 3118 3116 3115 3113 3111 3110 3108 3106 3104 3103 3101 3098 3096 3093 3090 3087 3083 3080 3077 3073 3070 3067 3063 3060 3056 3053 3049 3045 3041 3038 3034 3030 3026 3022 3018 3014 3011 3008 3005 3003 3001 2999 2997 2997 2996 2996 2997 2998 2999 3000 3000 3000 3000 3000 3000 3000 3000 3000 3000 3000 3001 3002 3004 3005 3006 3009 3012 3013 3016 3018 3020 3023 3025
3119 3119 3119 3119 3119 3119 3119 3120 3120 3119 3119 3118 3117 3115 3114 3112 3111 3109 3107 3105 3103 3101 3099 3097 3094 3091 3088 3085 3082 3078 3075 3071 3068 3064 3061 3057 3053 3050 3046 3042 3039 3035 3032 3028 3024 3020 3016 3011 3008 3005 3002 2999 2996 2994 2992 2991 2990 2990 2989 2990 2992 2993 2994 2994 2994 2994 2995 2995 2995 2996 2996 2996 2996 2997 2999 3000 3002 3004 3006 3007 3010 3012 3015 3018 3019
3118 3118 3118 3119 3119 3119 3120 3120 3119 3119 3118 3117 3115 3114 3113 3111 3110 3108 3106 3104 3102 3100 3097 3094 3092 3089 3086 3083 3080 3076 3073 3070 3066 3062 3058 3055 3051 3047 3043 3040 3036 3033 3030 3026 3022 3018 3014 3010 3006 3002 2999 2996 2993 2990 2987 2986 2985 2984 2983 2984 2985 2986 2988 2988 2988 2989 2989 2990 2991 2991 2991 2992 2992 2993 2994 2996 2997 2999 3000 3002 3005 3008 3010 3012 3015
3118 3118 3118 3119 3119 3119 3119 3119 3119 3118 3117 3116 3115 3113 3112 3110 3109 3107 3105 3103 3101 3098 3096 3093 3091 3088 3085 3082 3079 3075 3072 3068 3064 3061 3056 3053 3049 3045 3041 3038 3034 3030 3027 3024 3020 3016 3013 3009 3005 3001 2997 2993 2990 2987 2984 2982 2981 2980 2978 2978 2978 2980 2981 2982 2982 2983 2984 2985 2986 2986 2986 2987 2988 2988 2989 2991 2992 2994 2995 2998 3001 3002 3005 3008 3011
3118 3118 3118 3119 3119 3119 3119 3118 3118 3117 3116 3115 3114 3113 3111 3110 3108 3107 3104 3102 3099 3097 3095 3093 3090 3087 3084 3081 3078 3074 3070 3067 3063 3059 3055 3051 3048 3044 3040 3036 3032 3028 3024 3021 3017 3014 3010 3007 3003 2999 2996 2992 2988 2985 2982 2979 2977 2976 2974 2973 2973 2974 2975 2976 2976 2977 2978 2979 2980 2981 2981 2982 2983 2984 2984 2986 2988 2989 2991 2993 2995 2997 3000 3003 3005
3118 3118 3119 3119 3119 3118 3118 3117 3117 3116 3115 3114 3113 3112 3111 3110 3108 3106 3104 3101 3099 3097 3095 3092 3089 3086 3083 3080 3077 3073 3070 3066 3062 3058 3055 3051 3047 3043 3039 3034 3030 3026 3023 3019 3015 3011 3008 3004 3001 2997 2993 2990 2986 2983 2980 2977 2975 2973 2971 2970 2969 2969 2970 2970 2971 2972 2973 2974 2975 2976 2976 2977 2979 2980 2980 2981 2983 2984 2986 2988 2990 2992 2995 2997 2999
3118 3118 3118 3118 3118 3118 3117 3117 3116 3116 3115 3114 3113 3112 3111 3109 3107 3105 3103 3101 3099 3097 3094 3092 3089 3086 3083 3080 3077 3073 3069 3065 3062 3058 3055 3051 3047 3043 3038 3033 3029 3025 3022 3018 3015 3010 3006 3002 2999 2995 2991 2988 2984 2981 2978 2975 2973 2970 2969 2967 2966 2965 2965 2965 2966 2967 2968 2969 2970 2971 2971 2972 2974 2975 2976 2977 2978 2980 2981 2983 2985 2987 2990 2993 2995
3118 3118 3118 3118 3118 3117 3117 3116 3116 3115 3115 3114 3113 3112 3110 3108 3106 3104 3103 3101 3099 3097 3094 3092 3089 3086 3083 3080 3077 3073 3069 3066 3062 3058 3055 3051 3047 3043 3038 3034 3029 3025 3021 3017 3014 3010 3006 3002 2998 2994 2990 2986 2983 2980 2976 2973 2971 2968 2967 2965 2964 2962 2962 2961 2962 2963 2964 2965 2966 2967 2967 2968 2969 2971 2972 2973 2974 2975 2977 2979 2981 2983 2986 2988 2991
3117 3118 3118 3118 3117 3117 3117 3116 3116 3115 3115 3114 3112 3111 3109 3107 3106 3104 3102 3101 3098 3096 3094 3091 3088 3086 3083 3080 3077 3073 3069 3066 3062 3058 3055 3051 3047 3043 3038 3034 3030 3025 3021 3018 3014 3010 3006 3002 2998 2994 2990 2986 2982 2979 2976 2972 2970 2967 2965 2963 2962 2960 2959 2958 2958 2959 2960 2960 2962 2963 2963 2964 2965 2966 2968 2969 2970 2972 2973 2975 2976 2978 2981 2984 2986
3117 3117 3117 3117 3117 3117 3117 3116 3116 3115 3114 3113 3111 3110 3108 3106 3105 3104 3102 3100 3098 3096 3093 3090 3087 3085 3082 3079 3076 3072 3069 3066 3063 3059 3055 3051 3047 3043 3039 3034 3030 3026 3022 3018 3015 3011 3007 3003 3000 2995 2991 2987 2983 2979 2975 2972 2969 2967 2964 2962 2961 2959 2958 2956 2956 2956 2957 2957 2958 2959 2960 2960 2961 2962 2963 2965 2966 2968 2969 2971 2972 2974 2976 2979 2981
3116 3117 3117 3117 3117 3117 3117 3116 3116 3115 3113 3112 3110 3109 3108 3106 3105 3103 3101 3099 3097 3095 3093 3090 3087 3084 3081 3078 3075 3072 3069 3066 3063 3059 3056 3052 3047 3043 3038 3034 3030 3027 3023 3019 3016 3012 3009 3005 3001 2997 2993 2988 2983 2979 2976 2972 2970 2967 2964 2962 2960 2958 2956 2955 2954 2954 2955 2955 2955 2956 2956 2956 2957 2958 2959 2961 2962 2964 2965 2967 2968 2970 2972 2974 2977
3116 3116 3117 3117 3117 3117 3116 3116 3115 3114 3112 3111 3110 3109 3107 3106 3104 3102 3100 3099 3097 3094 3092 3090 3087 3084 3081 3078 3074 3071 3068 3065 3062 3058 3054 3050 3046 3042 3038 3034 3031 3027 3024 3020 3016 3013 3009 3006 3003 2999 2995 2990 2985 2981 2977 2973 2970 2967 2964 2961 2959 2957 2956 2954 2953 2953 2953 2953 2953 2954 2954 2954 2954 2955 2956 2958 2959 2960 2961 2963 2964 2966 2968 2970 2972
3116 3116 3116 3116 3116 3116 3116 3115 3114 3113 3112 3111 3110 3108 3107 3105 3103 3102 3100 3098 3096 3093 3091 3088 3086 3083 3080 3077 3074 3071 3068 3064 3060 3055 3051 3048 3044 3041 3038 3035 3031 3027 3024 3020 3017 3013 3010 3007 3004 3001 2997 2992 2988 2983 2978 2974 2970 2967 2964 2961 2959 2958 2956 2954 2953 2952 2952 2952 2952 2952 2952 2952 2952 2953 2954 2955 2955 2956 2957 2959 2960 2962 2964 2966 2968
3115 3116 3116 3116 3116 3116 3115 3115 3113 3112 3111 3110 3109 3108 3106 3105 3103 3101 3099 3097 3095 3093 3090 3088 3085 3082 3079 3076 3073 3070 3066 3062 3058 3055 3052 3049 3046 3042 3039 3035 3031 3028 3024 3021 3018 3015 3011 3008 3004 3001 2996 2992 2988 2983 2979 2975 2971 2967 2965 2962 2960 2958 2956 2955 2953 2952 2952 2952 2951 2951 2951 2951 2951 2951 2952 2953 2953 2954 2955 2956 2957 2958 2960 2962 2964
3115 3115 3116 3116 3116 3115 3115 3114 3113 3112 3111 3110 3109 3107 3106 3104 3103 3101 3099 3097 3095 3092 3090 3088 3085 3082 3079 3075 3072 3069 3065 3062 3059 3057 3054 3051 3047 3044 3040 3036 3032 3029 3026 3022 3019 3016 3012 3008 3004 3000 2996 2992 2988 2984 2980 2976 2973 2969 2966 2963 2961 2958 2956 2955 2954 2952 2952 2952 2951 2951 2951 2950 2950 2950 2951 2952 2952 2953 2953 2954 2955 2956 2957 2958 2960
3114 3115 3115 3115 3115 3114 3114 3113 3112 3111 3110 3109 3108 3107 3106 3104 3102 3100 3098 3096 3094 3092 3090 3087 3085 3082 3080 3076 3073 3070 3067 3064 3061 3058 3055 3052 3048 3045 3042 3038 3034 3030 3027 3023 3020 3016 3012 3009 3005 3001 2997 2993 2989 2986 2982 2979 2975 2972 2969 2966 2963 2960 2958 2956 2955 2954 2953 2953 2952 2951 2951 2951 2951 2951 2951 2951 2952 2952 2953 2953 2954 2954 2955 2956 2957
3114 3114 3114 3114 3114 3114 3113 3112 3112 3111 3110 3109 3108 3106 3105 3104 3102 3100 3098 3096 3094 3091 3089 3087 3084 3082 3080 3077 3074 3071 3068 3065 3062 3059 3056 3052 3049 3046 3043 3039 3036 3032 3029 3025 3021 3017 3013 3010 3006 3003 2999 2996 2992 2988 2985 2982 2978 2975 2972 2969 2965 2962 2960 2958 2957 2956 2955 2954 2953 2953 2952 2951 2952 2952 2952 2952 2952 2952 2952 2952 2953 2953 2954 2955 2956
3113 3114 3113 3113 3113 3113 3112 3112 3111 3110 3109 3109 3107 3106 3105 3103 3101 3100 3098 3095 3093 3091 3089 3087 3084 3082 3079 3077 3074 3071 3068 3065 3062 3059 3056 3053 3050 3047 3044 3040 3037 3034 3031 3027 3022 3018 3015 3012 3008 3005 3002 2998 2995 2992 2989 2986 2982 2979 2975 2972 2969 2967 2964 2962 2961 2959 2957 2956 2955 2954 2953 2953 2953 2954 2954 2954 2953 2953 2953 2953 2953 2953 2953 2954 2955
3112 3112 3113 3112 3112 3112 3112 3111 3110 3110 3109 3108 3107 3106 3104 3103 3101 3099 3097 3095 3093 3091 3089 3086 3084 3082 3080 3077 3075 3072 3069 3066 3063 3060 3057 3054 3051 3048 3045 3042 3040 3036 3032 3028 3024 3020 3017 3013 3010 3007 3004 3001 2998 2995 2992 2989 2986 2983 2980 2976 2974 2971 2969 2966 2964 2961 2960 2959 2957 2956 2955 2955 2955 2955 2955 2955 2955 2955 2955 2954 2954 2954 2954 2954 2955
3111 3111 3111 3111 3111 3111 3111 3110 3110 3109 3108 3107 3106 3105 3103 3102 3100 3099 3097 3095 3093 3091 3089 3086 3084 3082 3080 3078 3075 3072 3069 3066 3063 3060 3057 3055 3052 3050 3047 3045 3042 3038 3033 3029 3026 3022 3018 3015 3012 3009 3007 3004 3001 2998 2995 2992 2989 2986 2984 2981 2978 2976 2973 2970 2967 2965 2963 2962 2960 2959 2958 2957 2957 2957 2957 2957 2957 2957 2957 2956 2956 2956 2956 2956 2957
3110 3110 3110 3110 3110 3110 3110 3109 3109 3108 3107 3107 3105 3104 3103 3101 3100 3098 3096 3095 3093 3091 3088 3086 3084 3082 3080 3078 3075 3072 3069 3067 3064 3061 3058 3055 3052 3050 3048 3045 3041 3038 3034 3031 3027 3024 3021 3018 3015 3012 3009 3007 3004 3001 2998 2995 2993 2990 2987 2985 2982 2979 2977 2974 2972 2970 2968 2966 2964 2963 2962 2961 2960 2959 2959 2959 2958 2958 2958 2958 2958 2958 2958 2958 2959
3109 3109 3109 3109 3109 3109 3109 3108 3108 3107 3106 3106 3105 3104 3102 3101 3099 3098 3096 3094 3092 3090 3088 3086 3084 3082 3080 3078 3075 3073 3070 3067 3064 3061 3059 3056 3053 3051 3048 3045 3042 3039 3036 3033 3029 3026 3023 3020 3017 3014 3011 3009 3006 3004 3001 2999 2996 2994 2991 2988 2986 2983 2980 2978 2976 2974 2972 2970 2969 2967 2966 2965 2963 2962 2962 2961 2960 2960 2959 2959 2959 2960 2961 2961 2962
3108 3108 3108 3108 3108 3108 3108 3107 3107 3106 3105 3105 3104 3103 3102 3100 3099 3097 3096 3094 3092 3090 3088 3086 3084 3082 3080 3078 3076 3073 3071 3068 3065 3063 3061 3058 3055 3051 3048 3045 3042 3040 3037 3034 3031 3028 3025 3022 3019 3016 3013 3011 3009 3006 3004 3001 2999 2997 2994 2992 2989 2987 2985 2983 2981 2978 2976 2974 2972 2971 2970 2969 2967 2966 2965 2964 2963 2963 2962 2962 2962 2963 2963 2964 2964
3106 3107 3107 3107 3107 3107 3106 3106 3106 3105 3104 3104 3103 3102 3101 3100 3098 3097 3095 3094 3092 3090 3088 3086 3084 3082 3080 3078 3076 3073 3071 3068 3066 3064 3061 3058 3055 3052 3049 3046 3043 3041 3038 3036 3033 3030 3027 3024 3021 3018 3016 3013 3011 3008 3006 3004 3001 2999 2997 2995 2993 2991 2988 2986 2984 2982 2980 2978 2976 2974 2973 2972 2971 2970 2969 2968 2967 2966 2966 2965 2965 2965 2965 2966 2966
3105 3105 3105 3105 3105 3105 3105 3105 3105 3104 3103 3103 3102 3101 3100 3099 3097 3096 3095 3093 3091 3090 3088 3086 3084 3082 3080 3077 3075 3073 3071 3068 3066 3063 3061 3058 3055 3052 3050 3047 3044 3042 3039 3037 3034 3031 3029 3026 3023 3020 3018 3015 3013 3010 3008 3006 3004 3001 2999 2997 2995 2993 2991 2989 2987 2985 2983 2981 2980 2978 2977 2976 2975 2974 2973 2972 2971 2970 2970 2969 2969 2968 2968 2968 2968
3103 3103 3103 3103 3104 3104 3104 3104 3103 3103 3102 3101 3101 3100 3099 3098 3096 3095 3094 3092 3091 3089 3087 3085 3083 3082 3079 3077 3075 3073 3071 3068 3066 3064 3061 3058 3055 3053 3050 3048 3045 3042 3040 3038 3035 3033 3030 3028 3025 3022 3020 3017 3015 3013 3010 3008 3006 3004 3001 2999 2998 2996 2994 2992 2990 2988 2987 2985 2984 2982 2981 2979 2979 2978 2977 2975 2975 2974 2974 2973 2973 2972 2972 2971 2971
3101 3101 3101 3102 3102 3102 3102 3102 3102 3101 3101 3100 3099 3098 3097 3096 3095 3094 3093 3092 3090 3088 3087 3085 3083 3081 3079 3077 3075 3073 3071 3068 3066 3064 3061 3059 3056 3053 3051 3048 3046 3043 3040 3038 3036 3034 3031 3029 3026 3024 3022 3019 3017 3014 3012 3010 3008 3005 3003 3001 3000 2998 2996 2994 2993 2991 2990 2988 2987 2985 2984 2983 2982 2981 2981 2980 2979 2978 2978 2977 2977 2976 2976 2975 2975
3099 3099 3099 3100 3100 3100 3100 3100 3100 3100 3099 3098 3098 3097 3096 3095 3094 3093 3092 3090 3089 3087 3086 3084 3083 3081 3079 3077 3075 3072 3071 3069 3066 3064 3062 3059 3057 3054 3051 3049 3046 3044 3041 3039 3037 3034 3032 3030 3027 3025 3023 3021 3018 3016 3014 3012 3009 3007 3005 3003 3001 3000 2998 2997 2995 2994 2992 2991 2990 2989 2987 2986 2985 2985 2984 2983 2983 2982 2981 2981 2980 2980 2980 2979 2979
3097 3097 3098 3098 3098 3098 3098 3098 3098 3098 3097 3097 3096 3095 3094 3093 3092 3091 3090 3089 3088 3086 3085 3083 3082 3080 3078 3076 3074 3072 3070 3069 3067 3064 3062 3060 3057 3055 3052 3050 3047 3045 3042 3040 3038 3035 3033 3031 3029 3027 3024 3022 3020 3018 3015 3013 3011 3009 3007 3006 3004 3002 3000 2999 2997 2996 2995 2993 2992 2991 2990 2989 2989 2988 2987 2987 2986 2985 2985 2984 2984 2983 2983 2983 2983
3095 3095 3095 3096 3096 3096 3096 3096 3096 3096 3095 3095 3094 3094 3093 3092 3091 3090 3089 3088 3086 3085 3084 3082 3081 3079 3078 3076 3074 3072 3070 3069 3067 3064 3062 3060 3058 3055 3053 3050 3048 3045 3043 3041 3039 3036 3034 3032 3030 3028 3026 3024 3022 3019 3017 3015 3013 3011 3009 3008 3006 3004 3002 3001 2999 2998 2997 2995 2994 2993 2992 2992 2991 2990 2990 2989 2989 2988 2988 2987 2987 2987 2986 2986 2986
3093 3093 3093 3093 3094 3094 3094 3094 3094 3093 3093 3093 3092 3092 3091 3090 3089 3089 3087 3086 3085 3084 3082 3081 3080 3078 3077 3075 3074 3072 3070 3068 3066 3064 3062 3060 3058 3056 3053 3051 3049 3046 3044 3041 3039 3037 3035 3033 3031 3029 3027 3025 3023 3021 3019 3017 3015 3013 3011 3009 3008 3006 3004 3003 3001 3000 2999 2998 2997 2996 2995 2994 2993 2993 2992 2992 2991 2991 2991 2990 2990 2989 2989 2989 2989
3091 3091 3091 3091 3091 3092 3092 3091 3091 3091 3091 3091 3090 3089 3089 3088 3087 3087 3086 3085 3083 3082 3081 3080 3078 3077 3076 3074 3073 3071 3069 3068 3066 3064 3062 3060 3058 3056 3054 3052 3050 3047 3045 3042 3040 3038 3036 3033 3031 3029 3027 3026 3024 3022 3020 3018 3017 3015 3013 3011 3009 3008 3006 3005 3003 3002 3001 3000 2999 2998 2997 2996 2995 2994 2994 2993 2993 2993 2993 2992 2992 2992 2991 2991 2991
3088 3088 3088 3088 3089 3089 3089 3089 3089 3089 3089 3088 3088 3087 3086 3086 3085 3085 3084 3083 3082 3081 3079 3078 3077 3076 3074 3073 3071 3070 3068 3067 3065 3064 3062 3060 3058 3056 3054 3052 3050 3048 3045 3043 3041 3038 3036 3034 3032 3030 3028 3026 3025 3023 3021 3020 3018 3016 3014 3013 3011 3010 3008 3007 3005 3004 3003 3001 3000 2999 2999 2998 2997 2996 2996 2995 2995 2994 2994 2994 2994 2993 2993 2993 2993
3085 3086 3086 3086 3086 3086 3086 3086 3086 3086 3086 3086 3085 3085 3084 3084 3083 3083 3082 3081 3080 3079 3078 3077 3076 3074 3073 3072 3070 3069 3067 3066 3064 3063 3061 3060 3058 3056 3054 3052 3050 3048 3046 3044 3041 3039 3037 3035 3033 3031 3029 3027 3025 3024 3022 3021 3019 3018 3016 3014 3013 3011 3010 3008 3007 3006 3004 3003 3002 3001 3000 2999 2999 2998 2998 2997 2996 2996 2996 2995 2995 2995 2995 2994 2994
3083 3083 3083 3083 3083 3083 3083 3083 3083 3083 3083 3083 3083 3082 3082 3081 3081 3080 3080 3079 3078 3077 3076 3075 3074 3072 3071 3070 3069 3067 3066 3064 3063 3062 3060 3059 3057 3055 3054 3052 3050 3048 3046 3044 3042 3040 3038 3035 3033 3031 3029 3027 3026 3024 3022 3021 3020 3018 3017 3015 3014 3012 3011 3010 3008 3007 3006 3005 3003 3002 3002 3001 3000 2999 2999 2998 2998 2997 2997 2997 2996 2996 2996 2996 2996
3080 3080 3080 3080 3080 3080 3080 3080 3080 3080 3080 3080 3080 3079 3079 3078 3078 3077 3077 3076 3075 3074 3073 3072 3071 3070 3069 3068 3067 3066 3064 3063 3061 3060 3059 3058 3056 3055 3053 3051 3049 3048 3046 3044 3042 3040 3038 3036 3034 3032 3030 3028 3026 3024 3023 3021 3020 3018 3017 3016 3015 3013 3012 3011 3009 3008 3007 3006 3005 3004 3003 3002 3001 3000 3000 2999 2999 2998 2998 2998 2997 2997 2997 2997 2997